Deer Park, WA
on Thursday, January 31, 2013

Thursday
Previous Day Next Day
Daily Summary
 ActualAverageRecord
Temperature
Mean Temperature °F 29°F  
Max Temperature 36°F 36°F 46°F (2003)
Min Temperature 28°F 22°F 2°F (2014)
Degree Days
Heating Degree Days 33 36  
Month to date heating degree days 1315 1169  
Since 1 July heating degree days 4108 4396  
Cooling Degree Days 0 0  
Month to date cooling degree days 0 0  
Year to date cooling degree days 0 0  
Moisture
Dew Point 33°F   
Average Humidity 96    
Maximum Humidity 100    
Minimum Humidity 92    
Precipitation
Precipitation 0.03 in 0.07 in 0.56 in (2002)
Month to date precipitation 1.50 2.63  
Year to date precipitation 1.50 2.63  
Wind
Wind Speed 2 mph   
Max Wind Speed 9 mph   
Max Gust Speed 13 mph   
Visibility 2 miles   
Events Fog , Rain   

Key: T is trace of precipitation, MM is missing value
Source: NWS Daily Summary
Time(PST)TemperatureDew PointHumidity Pressure Visibility Wind DirectionWind SpeedGust SpeedPrecipitationEvents Conditions
12:50 AM 28.4°F 28.4°F 100% 30.22 in 1.5 miles Calm Calm - N/A   Overcast
12:53 AM 28.9°F 28.0°F 96% 30.29 in 2.0 miles Calm Calm - N/A   Overcast
1:10 AM 28.4°F 28.4°F 100% 30.22 in 1.0 miles NW 3.5 mph - N/A   Overcast
1:33 AM 28.4°F 28.4°F 100% 30.23 in 3.0 miles Calm Calm - N/A   Overcast
1:53 AM 30.0°F 28.9°F 96% 30.30 in 4.0 miles Calm Calm - N/A   Overcast
2:53 AM 30.9°F 30.0°F 96% 30.30 in 4.0 miles WNW 3.5 mph - N/A   Overcast
3:31 AM 30.2°F 30.2°F 100% 30.23 in 2.0 miles Calm Calm - N/A   Overcast
3:40 AM 32.0°F 30.2°F 93% 30.23 in 1.2 miles Calm Calm - N/A   Overcast
3:51 AM 32.0°F 30.2°F 93% 30.23 in 0.8 miles Calm Calm - N/A   Mist
3:53 AM 32.0°F 30.9°F 96% 30.30 in 0.5 miles Calm Calm - N/A Fog Fog
4:53 AM 30.9°F 30.9°F 100% 30.30 in 0.2 miles Calm Calm - N/A Fog Light Freezing Fog
5:53 AM 32.0°F 32.0°F 100% 30.29 in 0.2 miles Calm Calm - N/A Fog Fog
6:53 AM 32.0°F 32.0°F 100% 30.30 in 0.2 miles Calm Calm - N/A Fog Fog
7:53 AM 32.0°F 32.0°F 100% 30.30 in 0.2 miles Calm Calm - N/A Fog Fog
8:53 AM 32.0°F 32.0°F 100% 30.31 in 0.2 miles Calm Calm - N/A Fog Fog
9:53 AM 34.0°F 34.0°F 100% 30.31 in 0.2 miles Calm Calm - N/A Fog Fog
10:53 AM 34.0°F 34.0°F 100% 30.32 in 0.2 miles Calm Calm - N/A Fog Fog
11:53 AM 35.1°F 35.1°F 100% 30.30 in 0.5 miles Calm Calm - N/A Fog Fog
12:44 PM 35.6°F 35.6°F 100% 30.23 in 1.2 miles Calm Calm - N/A   Overcast
12:53 PM 36.0°F 35.1°F 97% 30.29 in 2.0 miles Calm Calm - N/A   Overcast
1:03 PM 35.6°F 35.6°F 100% 30.22 in 3.0 miles Calm Calm - N/A   Overcast
1:10 PM 35.6°F 35.6°F 100% 30.22 in 6.0 miles SW 4.6 mph - N/A   Overcast
1:53 PM 35.1°F 35.1°F 100% 30.27 in 10.0 miles South 3.5 mph - N/A   Overcast
2:05 PM 35.6°F 35.6°F 100% 30.21 in 8.0 miles South 4.6 mph - N/A   Overcast
2:53 PM 35.1°F 34.0°F 96% 30.28 in 10.0 miles SW 5.8 mph - N/A   Overcast
3:53 PM 35.1°F 34.0°F 96% 30.27 in 8.0 miles South 3.5 mph - 0.00 in   Overcast
4:12 PM 33.8°F 33.8°F 100% 30.20 in 4.0 miles Calm Calm - 0.01 in   Overcast
4:19 PM 35.6°F 35.6°F 100% 30.20 in 4.0 miles Calm Calm - 0.01 in   Overcast
4:34 PM 35.6°F 35.6°F 100% 30.20 in 3.0 miles Calm Calm - 0.02 in   Overcast
4:43 PM 35.6°F 35.6°F 100% 30.20 in 2.0 miles Calm Calm - 0.02 in Rain Light Rain
4:53 PM 35.1°F 35.1°F 100% 30.26 in 2.0 miles Calm Calm - 0.03 in   Overcast
4:59 PM 35.6°F 35.6°F 100% 30.19 in 1.8 miles Calm Calm - 0.00 in   Overcast
5:15 PM 33.8°F 33.8°F 100% 30.20 in 0.8 miles Calm Calm - 0.00 in   Overcast
5:25 PM 33.8°F 33.8°F 100% 30.19 in 1.0 miles Calm Calm - 0.00 in   Overcast
5:45 PM 33.8°F 33.8°F 100% 30.19 in 3.0 miles Calm Calm - 0.00 in   Overcast
5:47 PM 33.8°F 33.8°F 100% 30.19 in 2.5 miles Calm Calm - 0.00 in   Overcast
5:53 PM 34.0°F 34.0°F 100% 30.25 in 1.8 miles Calm Calm - 0.00 in   Overcast
6:02 PM 33.8°F 33.8°F 100% 30.19 in 1.0 miles Calm Calm - N/A   Overcast
6:20 PM 33.8°F 33.8°F 100% 30.19 in 1.2 miles Calm Calm - N/A   Overcast
6:40 PM 33.8°F 33.8°F 100% 30.18 in 0.8 miles North 3.5 mph - N/A   Overcast
6:53 PM 34.0°F 33.1°F 96% 30.25 in 1.8 miles North 4.6 mph - N/A   Overcast
7:00 PM 33.8°F 33.8°F 100% 30.18 in 2.5 miles North 3.5 mph - N/A   Overcast
7:36 PM 33.8°F 33.8°F 100% 30.18 in 1.5 miles Calm Calm - N/A   Overcast
7:48 PM 33.8°F 33.8°F 100% 30.17 in 0.8 miles Calm Calm - N/A   Overcast
7:53 PM 34.0°F 34.0°F 100% 30.23 in 0.8 miles Calm Calm - N/A   Mostly Cloudy
8:01 PM 33.8°F 33.8°F 100% 30.17 in 0.8 miles Calm Calm - N/A   Mostly Cloudy
8:22 PM 33.8°F 33.8°F 100% 30.16 in 0.2 miles Calm Calm - N/A Fog Fog
8:53 PM 33.1°F 33.1°F 100% 30.22 in 0.8 miles Calm Calm - N/A   Overcast
9:12 PM 33.8°F 33.8°F 100% 30.16 in 0.5 miles Calm Calm - N/A Fog Fog
9:20 PM 33.8°F 32.0°F 93% 30.16 in 1.0 miles Calm Calm - N/A   Overcast
9:34 PM 33.8°F 33.8°F 100% 30.16 in 2.0 miles South 3.5 mph - N/A   Overcast
9:42 PM 33.8°F 33.8°F 100% 30.16 in 3.0 miles SSE 3.5 mph - N/A   Overcast
9:53 PM 35.1°F 34.0°F 96% 30.21 in 3.0 miles South 3.5 mph - N/A   Overcast
10:53 PM 36.0°F 35.1°F 97% 30.21 in 6.0 miles SSE 5.8 mph - N/A   Overcast
11:53 PM 34.0°F 34.0°F 100% 30.22 in 6.0 miles South 5.8 mph - N/A   Overcast
Moon Phase
Jan. 31 Feb. 03 Feb. 10 Feb. 17 Feb. 25
Sunrise:07:18 AM (PST) Moon Rise:10:24 PM (PST)1/31
Sunset:04:48 PM (PST) Moon Set:08:54 AM (PST)1/31

Copyright © 2014 The Weather Underground, Inc.